W5GGH Weather Reports


time (UTC)temp
C
wind
direction
speed
KPH
gust
KPH
rain 1hr
cm
rain 24hr
cm
rain mn
cm
humidity
%
barometer
mb
20260506092530 15 31 3.2 12.9 0.00 0.00 0.00 74 1027.3
20260506092027 15 340 3.2 16.1 0.00 0.00 0.00 74 1027.6
20260506091525 15 3 9.7 9.7 0.00 0.00 0.00 74 1027.3
20260506091022 15 350 3.2 9.7 0.00 0.00 0.00 74 1027.3
20260506090520 15 14 6.4 11.3 0.00 0.00 0.00 75 1027.2
20260506090016 15 38 6.4 6.4 0.00 0.00 0.00 75 1027.5
20260506085513 15 22 9.7 12.9 0.00 0.00 0.00 75 1027.2
20260506085009 15 38 9.7 9.7 0.00 0.00 0.00 75 1027.3
20260506084506 15 7 3.2 8.0 0.00 0.00 0.00 75 1027.0
20260506084002 15 42 8.0 12.9 0.00 0.00 0.00 75 1027.2
20260506083500 15 6 3.2 11.3 0.00 0.00 0.00 75 1027.1
20260506082957 15 6 3.2 8.0 0.00 0.00 0.00 75 1027.0
20260506082454 15 34 3.2 9.7 0.00 0.00 0.00 75 1027.0
20260506081949 15 30 3.2 8.0 0.00 0.00 0.00 76 1026.9
20260506081448 16 25 3.2 11.3 0.00 0.00 0.00 75 1026.7
20260506080945 16 331 4.8 9.7 0.00 0.00 0.00 76 1026.8
20260506080442 16 8 6.4 12.9 0.00 0.00 0.00 76 1026.9
20260506073426 16 29 4.8 4.8 0.00 0.00 0.00 76 1026.7
20260506072923 16 60 3.2 11.3 0.00 0.00 0.00 76 1026.6
20260506072420 16 11 3.2 9.7 0.00 0.00 0.00 76 1026.6
20260506071918 16 25 6.4 9.7 0.00 0.00 0.00 76 1026.6
20260506071416 16 0 4.8 11.3 0.00 0.00 0.00 76 1026.6
20260506070912 16 42 1.6 11.3 0.00 0.00 0.00 76 1026.4
20260506070409 16 18 4.8 11.3 0.00 0.00 0.00 76 1026.4
20260506062347 16 311 4.8 8.0 0.00 0.00 0.00 77 1026.5
20260506061842 16 354 11.3 11.3 0.00 0.00 0.00 76 1026.3
20260506061339 16 341 6.4 9.7 0.00 0.00 0.00 76 1026.4
20260506060837 16 347 6.4 9.7 0.00 0.00 0.00 76 1026.5
20260506060335 17 18 6.4 9.7 0.00 0.00 0.00 76 1026.4
20260506051307 17 345 3.2 6.4 0.00 0.00 0.00 74 1026.4
20260506050805 17 1 4.8 6.4 0.00 0.00 0.00 74 1026.5
20260506050302 18 353 3.2 9.7 0.00 0.00 0.00 73 1026.6
20260506044752 18 35 6.4 11.3 0.00 0.00 0.00 73 1026.4
20260506044250 18 334 6.4 11.3 0.00 0.00 0.00 73 1026.3
20260506043747 18 328 8.0 9.7 0.00 0.00 0.00 73 1026.4
20260506043244 18 4 4.8 11.3 0.00 0.00 0.00 73 1026.4
20260506042743 18 28 4.8 9.7 0.00 0.00 0.00 73 1026.2
20260506042241 19 304 8.0 11.3 0.00 0.00 0.00 73 1026.5
20260506041739 19 43 3.2 9.7 0.00 0.00 0.00 72 1026.2
20260506041236 19 6 3.2 9.7 0.00 0.00 0.00 72 1026.4
20260506040733 19 8 3.2 11.3 0.00 0.00 0.00 71 1026.5
20260506040230 20 54 6.4 16.1 0.00 0.00 0.00 71 1026.2
20260506035727 20 45 11.3 12.9 0.00 0.00 0.00 71 1026.3
20260506035224 20 322 6.4 9.7 0.00 0.00 0.00 70 1026.3
20260506034721 20 26 4.8 14.5 0.00 0.00 0.00 70 1025.9
20260506034218 20 354 3.2 9.7 0.00 0.00 0.00 70 1025.7
20260506033715 20 22 4.8 6.4 0.00 0.00 0.00 69 1025.6
20260506033212 20 17 3.2 9.7 0.00 0.00 0.00 69 1025.6
20260506032709 20 15 8.0 12.9 0.00 0.00 0.00 69 1025.7
20260506032206 20 10 6.4 9.7 0.00 0.00 0.00 69 1025.5
20260506031703 20 6 1.6 12.9 0.00 0.00 0.00 69 1025.3
20260506031200 20 32 4.8 9.7 0.00 0.00 0.00 69 1025.1
20260506030658 20 29 9.7 12.9 0.00 0.00 0.00 69 1024.8
20260506030155 20 343 4.8 9.7 0.00 0.00 0.00 69 1024.9
20260506025652 21 35 6.4 8.0 0.00 0.00 0.00 68 1024.8
20260506025148 21 16 4.8 9.7 0.00 0.00 0.00 68 1024.6
20260506024646 21 29 3.2 6.4 0.00 0.00 0.00 68 1024.8
20260506024142 21 324 4.8 9.7 0.00 0.00 0.00 68 1024.8
20260506023638 21 316 6.4 9.7 0.00 0.00 0.00 68 1024.6
20260506023136 21 348 6.4 8.0 0.00 0.00 0.00 67 1024.4
20260506022633 21 12 8.0 9.7 0.00 0.00 0.00 67 1024.4
20260506022130 21 32 6.4 12.9 0.00 0.00 0.00 67 1024.4
20260506021628 22 49 6.4 12.9 0.00 0.00 0.00 67 1024.2
20260506021125 22 9 3.2 9.7 0.00 0.00 0.00 67 1024.2
20260506020622 22 321 4.8 9.7 0.00 0.00 0.00 67 1024.0
20260506020119 22 41 6.4 11.3 0.00 0.00 0.00 66 1023.9
20260506015617 22 36 8.0 9.7 0.00 0.00 0.00 66 1023.9
20260506015114 22 49 8.0 8.0 0.00 0.00 0.00 65 1023.6
20260506014611 22 2 4.8 14.5 0.00 0.00 0.00 65 1023.2
20260506014106 23 346 6.4 9.7 0.00 0.00 0.00 64 1023.3
20260506013605 23 23 6.4 9.7 0.00 0.00 0.00 65 1023.2
20260506013102 23 10 3.2 17.7 0.00 0.00 0.00 65 1022.9
20260506012558 23 330 4.8 14.5 0.00 0.00 0.00 65 1022.8
20260506012054 23 34 4.8 6.4 0.00 0.00 0.00 65 1022.7
20260506011552 23 359 3.2 9.7 0.00 0.00 0.00 65 1022.3
20260506011048 23 336 1.6 8.0 0.00 0.00 0.00 64 1022.2
20260506010548 23 327 3.2 12.9 0.00 0.00 0.00 64 1022.5
20260506010044 23 343 3.2 6.4 0.00 0.00 0.00 64 1022.4
20260506005541 23 3 3.2 8.0 0.00 0.00 0.00 63 1022.3
20260506005037 24 77 4.8 9.7 0.00 0.00 0.00 63 1022.4
20260506004535 24 14 3.2 6.4 0.00 0.00 0.00 62 1022.4
20260506004031 24 27 6.4 9.7 0.00 0.00 0.00 62 1022.3
20260506003528 25 1 3.2 8.0 0.00 0.00 0.00 61 1022.1
20260506003024 25 19 4.8 8.0 0.00 0.00 0.00 61 1021.9
20260506002520 25 351 4.8 8.0 0.00 0.00 0.00 60 1021.9
20260506002016 25 330 8.0 8.0 0.00 0.00 0.00 59 1022.0
20260506001512 25 356 4.8 9.7 0.00 0.00 0.00 59 1021.9
20260506001010 25 33 9.7 12.9 0.00 0.00 0.00 58 1021.9
20260506000507 25 26 3.2 9.7 0.00 0.00 0.00 58 1022.0
20260506000004 26 26 4.8 11.3 0.00 0.00 0.00 57 1022.0
20260505235502 26 25 3.2 12.9 0.00 0.00 0.00 57 1022.0
20260505234958 26 24 9.7 9.7 0.00 0.00 0.00 58 1021.6
20260505234456 26 49 3.2 9.7 0.00 0.00 0.00 56 1021.5
20260505233952 26 10 11.3 14.5 0.00 0.00 0.00 56 1021.6
20260505233450 27 21 3.2 9.7 0.00 0.00 0.00 58 1021.3
20260505232947 27 5 3.2 8.0 0.00 0.00 0.00 57 1021.3
20260505232445 27 17 6.4 9.7 0.00 0.00 0.00 56 1021.3
20260505231942 27 29 12.9 17.7 0.00 0.00 0.00 56 1021.2
20260505231439 28 65 3.2 11.3 0.00 0.00 0.00 57 1021.0
20260505230937 28 3 3.2 12.9 0.00 0.00 0.00 56 1020.9
20260505230435 29 9 3.2 11.3 0.00 0.00 0.00 55 1021.0
20260505225931 30 336 3.2 9.7 0.00 0.00 0.00 52 1020.7
20260505225428 30 358 3.2 9.7 0.00 0.00 0.00 49 1020.8
20260505224924 30 19 3.2 6.4 0.00 0.00 0.00 46 1020.8
20260505224421 31 353 3.2 6.4 0.00 0.00 0.00 45 1020.6
20260505223918 31 340 4.8 9.7 0.00 0.00 0.00 45 1020.5
20260505223415 31 1 6.4 9.7 0.00 0.00 0.00 46 1020.6
20260505222911 32 43 1.6 8.0 0.00 0.00 0.00 45 1020.5
20260505222408 32 27 8.0 9.7 0.00 0.00 0.00 43 1020.5
20260505221904 33 2 3.2 4.8 0.00 0.00 0.00 43 1020.3
20260505221401 33 0 3.2 6.4 0.00 0.00 0.00 44 1020.4
20260505220858 33 26 3.2 4.8 0.00 0.00 0.00 44 1020.2
20260505220355 33 356 3.2 6.4 0.00 0.00 0.00 43 1020.2
20260505215853 33 356 3.2 4.8 0.00 0.00 0.00 44 1020.1
20260505215351 33 12 3.2 4.8 0.00 0.00 0.00 44 1020.3
20260505214849 33 20 1.6 4.8 0.00 0.00 0.00 43 1020.2
20260505214346 33 330 3.2 4.8 0.00 0.00 0.00 41 1020.1
20260505213843 33 6 3.2 4.8 0.00 0.00 0.00 43 1020.2
20260505213341 33 334 3.2 6.4 0.00 0.00 0.00 41 1020.3
20260505212837 34 318 4.8 4.8 0.00 0.00 0.00 42 1020.3
20260505212334 33 338 3.2 8.0 0.00 0.00 0.00 41 1020.4
20260505211830 34 5 4.8 8.0 0.00 0.00 0.00 40 1020.3
20260505211328 34 310 4.8 4.8 0.00 0.00 0.00 44 1020.4
20260505210824 34 139 0.0 3.2 0.00 0.00 0.00 46 1020.4
20260505210321 34 50 1.6 3.2 0.00 0.00 0.00 47 1020.7
20260505205818 34 19 1.6 3.2 0.00 0.00 0.00 42 1020.6
20260505205316 34 23 1.6 6.4 0.00 0.00 0.00 46 1020.9
20260505204812 34 23 1.6 3.2 0.00 0.00 0.00 46 1020.9
20260505204311 34 50 3.2 3.2 0.00 0.00 0.00 45 1020.9
20260505203808 35 317 4.8 6.4 0.00 0.00 0.00 43 1021.0
20260505203304 34 16 3.2 3.2 0.00 0.00 0.00 44 1020.7
20260505202800 34 117 1.6 4.8 0.00 0.00 0.00 44 1020.9
20260505202256 33 61 1.6 4.8 0.00 0.00 0.00 47 1021.0
20260505201753 33 9 3.2 4.8 0.00 0.00 0.00 49 1021.0
20260505201251 33 14 4.8 4.8 0.00 0.00 0.00 48 1021.2
20260505200749 33 126 0.0 4.8 0.00 0.00 0.00 48 1021.2
20260505200246 33 128 0.0 9.7 0.00 0.00 0.00 47 1021.2
20260505195741 33 29 0.0 8.0 0.00 0.00 0.00 46 1021.2
20260505195239 33 28 0.0 8.0 0.00 0.00 0.00 47 1021.3
20260505194736 33 345 4.8 4.8 0.00 0.00 0.00 47 1021.4
20260505194232 33 1 3.2 6.4 0.00 0.00 0.00 49 1021.6
20260505193728 33 0 1.6 6.4 0.00 0.00 0.00 50 1021.5
20260505193226 32 49 3.2 4.8 0.00 0.00 0.00 54 1021.4
20260505192724 32 145 0.0 4.8 0.00 0.00 0.00 53 1021.7
20260505192221 32 145 0.0 4.8 0.00 0.00 0.00 55 1021.5
20260505191719 32 33 0.0 3.2 0.00 0.00 0.00 56 1021.6
20260505191218 32 273 3.2 4.8 0.00 0.00 0.00 57 1021.6
20260505190714 32 66 0.0 6.4 0.00 0.00 0.00 55 1021.3
20260505190213 32 185 3.2 6.4 0.00 0.00 0.00 55 1021.2
20260505185710 31 287 3.2 6.4 0.00 0.00 0.00 55 1021.4
20260505185207 31 121 3.2 8.0 0.00 0.00 0.00 57 1021.6
20260505184703 31 21 1.6 3.2 0.00 0.00 0.00 63 1021.4
20260505184200 31 142 3.2 4.8 0.00 0.00 0.00 58 1021.7
20260505183657 31 57 3.2 6.4 0.00 0.00 0.00 59 1021.7
20260505183155 31 53 3.2 4.8 0.00 0.00 0.00 61 1021.7
20260505182650 31 12 3.2 8.0 0.00 0.00 0.00 61 1021.8
20260505182148 31 352 3.2 6.4 0.00 0.00 0.00 60 1021.8
20260505181644 31 57 3.2 6.4 0.00 0.00 0.00 62 1022.0
20260505181142 30 353 3.2 8.0 0.00 0.00 0.00 61 1021.8
20260505180638 30 349 1.6 8.0 0.00 0.00 0.00 63 1021.9
20260505180135 30 133 3.2 6.4 0.00 0.00 0.00 63 1022.1
20260505175631 30 19 3.2 6.4 0.00 0.00 0.00 64 1022.0
20260505175128 30 326 3.2 4.8 0.00 0.00 0.00 65 1021.8
20260505174624 30 222 3.2 6.4 0.00 0.00 0.00 63 1022.0
20260505174120 29 135 0.0 4.8 0.00 0.00 0.00 64 1022.1
20260505173617 29 183 1.6 6.4 0.00 0.00 0.00 65 1022.0
20260505173114 28 36 3.2 6.4 0.00 0.00 0.00 65 1022.0
20260505172612 28 20 0.0 6.4 0.00 0.00 0.00 66 1022.3
20260505172108 28 298 3.2 6.4 0.00 0.00 0.00 67 1022.1
20260505171603 28 198 0.0 8.0 0.00 0.00 0.00 67 1022.1
20260505171100 27 69 3.2 4.8 0.00 0.00 0.00 68 1022.3
20260505170557 27 320 3.2 3.2 0.00 0.00 0.00 69 1022.2
20260505170053 27 123 1.6 4.8 0.00 0.00 0.00 68 1022.3
20260505165548 27 308 4.8 6.4 0.00 0.00 0.00 68 1022.2
20260505165045 27 137 1.6 8.0 0.00 0.00 0.00 69 1022.2
20260505164540 28 91 3.2 6.4 0.00 0.00 0.00 67 1022.3
20260505164038 28 92 3.2 8.0 0.00 0.00 0.00 68 1022.2
20260505163537 27 49 1.6 6.4 0.00 0.00 0.00 68 1022.1
20260505163033 27 239 0.0 4.8 0.00 0.00 0.00 70 1021.9
20260505162532 27 75 3.2 6.4 0.00 0.00 0.00 71 1021.9
20260505162029 26 115 1.6 4.8 0.00 0.00 0.00 71 1021.9
20260505161526 26 310 3.2 4.8 0.00 0.00 0.00 72 1021.7
20260505161023 26 171 4.8 8.0 0.00 0.00 0.00 71 1021.8
20260505160521 26 13 1.6 4.8 0.00 0.00 0.00 71 1021.8
20260505152957 25 71 3.2 6.4 0.00 0.00 0.00 76 1022.0
20260505152455 25 18 4.8 6.4 0.00 0.00 0.00 76 1021.9
20260505151950 25 30 3.2 9.7 0.00 0.00 0.00 76 1022.1
20260505151445 25 126 3.2 6.4 0.00 0.00 0.00 76 1021.9
20260505150943 25 5 1.6 4.8 0.00 0.00 0.00 77 1021.9
20260505150440 25 133 1.6 11.3 0.00 0.00 0.00 76 1021.9
20260505140410 23 34 3.2 6.4 0.00 0.00 0.00 82 1021.8
20260505124823 21 65 1.6 6.4 0.00 0.00 0.00 87 1021.4
20260505124320 21 0 3.2 4.8 0.00 0.00 0.00 87 1021.4
20260505123816 21 156 6.4 8.0 0.00 0.00 0.00 87 1021.0
20260505123313 21 212 3.2 4.8 0.00 0.00 0.00 87 1021.4
20260505122809 21 9 4.8 8.0 0.00 0.00 0.00 87 1021.2
20260505122307 21 307 1.6 6.4 0.00 0.00 0.00 87 1021.1
20260505121803 21 93 3.2 6.4 0.00 0.00 0.00 87 1021.0
20260505121300 21 303 3.2 8.0 0.00 0.00 0.00 88 1021.1
20260505120756 21 347 4.8 4.8 0.00 0.00 0.00 88 1021.2
20260505120252 21 82 3.2 6.4 0.00 0.00 0.00 88 1021.0
20260505115751 21 33 1.6 4.8 0.00 0.00 0.00 88 1020.8
20260505115249 21 49 3.2 4.8 0.00 0.00 0.00 88 1020.7
20260505114746 21 315 3.2 4.8 0.00 0.00 0.00 89 1020.7
20260505114242 21 177 0.0 4.8 0.00 0.00 0.00 89 1020.8
20260505113739 21 43 4.8 6.4 0.00 0.00 0.00 89 1020.9
20260505113235 20 103 3.2 4.8 0.00 0.00 0.00 90 1020.8
20260505112731 20 343 3.2 6.4 0.00 0.00 0.00 90 1020.6
20260505112229 20 61 3.2 4.8 0.00 0.00 0.00 90 1020.5
20260505111729 20 40 3.2 4.8 0.00 0.00 0.00 90 1020.7
20260505111225 20 115 4.8 6.4 0.00 0.00 0.00 91 1020.7
20260505110721 20 49 4.8 4.8 0.00 0.00 0.00 90 1020.7
20260505110219 20 42 3.2 3.2 0.00 0.00 0.00 90 1020.7
20260505102154 20 359 1.6 6.4 0.00 0.00 0.00 90 1020.5
20260505101653 20 13 3.2 4.8 0.00 0.00 0.00 90 1020.4
20260505101149 20 46 0.0 4.8 0.00 0.00 0.00 89 1020.4
20260505100645 20 65 3.2 4.8 0.00 0.00 0.00 89 1020.5
20260505100142 20 340 3.2 6.4 0.00 0.00 0.00 89 1020.6
20260505095638 20 109 1.6 6.4 0.00 0.00 0.00 89 1020.7
20260505095136 20 17 3.2 6.4 0.00 0.00 0.00 89 1020.8
20260505094631 20 150 1.6 4.8 0.00 0.00 0.00 89 1020.7
20260505094128 20 20 4.8 4.8 0.00 0.00 0.00 89 1020.8
20260505093624 20 63 1.6 6.4 0.00 0.00 0.00 89 1020.8
20260505093121 20 37 0.0 4.8 0.00 0.00 0.00 88 1020.9